Time,TemperatureF,DewpointF,PressureIn,WindDirection,WindDirectionDegrees,WindSpeedMPH,WindSpeedGustMPH,Humidity,HourlyPrecipIn,Conditions,Clouds,dailyrainin,SolarRadiationWatts/m^2,SoftwareType,DateUTC
2013-03-04 00:01:00,20.0,-1.0,-100.00,East,80,4.0,7.0,38,0.00,,,0.00,0.000000,,2013-03-04 06:01:00,
2013-03-04 00:32:00,19.0,-2.0,-100.00,ENE,77,3.0,5.0,38,0.00,,,0.00,0.000000,,2013-03-04 06:32:00,
2013-03-04 00:42:00,19.0,-2.0,-100.00,ENE,77,3.0,5.0,38,0.00,,,0.00,0.000000,,2013-03-04 06:42:00,
2013-03-04 00:52:00,19.0,-2.0,-100.00,ENE,77,3.0,5.0,38,0.00,,,0.00,0.000000,,2013-03-04 06:52:00,
2013-03-04 01:01:00,19.0,-2.0,-100.00,ENE,77,3.0,5.0,38,0.00,,,0.00,0.000000,,2013-03-04 07:01:00,
2013-03-04 01:32:00,18.0,-3.0,-100.00,ENE,77,3.0,5.0,38,0.00,,,0.00,0.000000,,2013-03-04 07:32:00,
2013-03-04 01:42:00,18.0,-3.0,-100.00,ENE,77,3.0,5.0,38,0.00,,,0.00,0.000000,,2013-03-04 07:42:00,
2013-03-04 01:52:00,18.0,-3.0,-100.00,ENE,77,3.0,5.0,38,0.00,,,0.00,0.000000,,2013-03-04 07:52:00,
2013-03-04 02:02:00,18.0,-3.0,-100.00,ENE,77,3.0,5.0,38,0.00,,,0.00,0.000000,,2013-03-04 08:02:00,
2013-03-04 02:32:00,20.0,-3.0,-100.00,East,87,4.0,9.0,36,0.00,,,0.00,0.000000,,2013-03-04 08:32:00,
2013-03-04 02:42:00,20.0,-3.0,-100.00,East,87,4.0,9.0,36,0.00,,,0.00,0.000000,,2013-03-04 08:42:00,
2013-03-04 02:52:00,20.0,-3.0,-100.00,East,87,4.0,9.0,36,0.00,,,0.00,0.000000,,2013-03-04 08:52:00,
2013-03-04 03:01:00,20.0,-3.0,-100.00,East,87,4.0,9.0,36,0.00,,,0.00,0.000000,,2013-03-04 09:01:00,
2013-03-04 03:32:00,20.0,-3.0,-100.00,ENE,75,4.0,7.0,36,0.00,,,0.00,0.000000,,2013-03-04 09:32:00,
2013-03-04 03:42:00,20.0,-3.0,-100.00,ENE,75,4.0,7.0,36,0.00,,,0.00,0.000000,,2013-03-04 09:42:00,
2013-03-04 03:52:00,20.0,-3.0,-100.00,ENE,75,4.0,7.0,36,0.00,,,0.00,0.000000,,2013-03-04 09:52:00,
2013-03-04 04:01:00,20.0,-3.0,-100.00,ENE,75,4.0,7.0,36,0.00,,,0.00,0.000000,,2013-03-04 10:01:00,
2013-03-04 04:32:00,21.0,-1.0,-100.00,East,79,6.0,10.0,37,0.00,,,0.00,0.000000,,2013-03-04 10:32:00,
2013-03-04 04:42:00,21.0,-1.0,-100.00,East,79,6.0,10.0,37,0.00,,,0.00,0.000000,,2013-03-04 10:42:00,
2013-03-04 04:52:00,21.0,-1.0,-100.00,East,79,6.0,10.0,37,0.00,,,0.00,0.000000,,2013-03-04 10:52:00,
2013-03-04 05:02:00,21.0,-1.0,-100.00,East,79,6.0,10.0,37,0.00,,,0.00,0.000000,,2013-03-04 11:02:00,
2013-03-04 05:32:00,21.0,-1.0,-100.00,ENE,72,5.0,10.0,38,0.00,,,0.00,0.000000,,2013-03-04 11:32:00,
2013-03-04 05:42:00,21.0,-1.0,-100.00,ENE,72,5.0,10.0,38,0.00,,,0.00,0.000000,,2013-03-04 11:42:00,
2013-03-04 05:52:00,21.0,-1.0,-100.00,ENE,72,5.0,10.0,38,0.00,,,0.00,0.000000,,2013-03-04 11:52:00,
2013-03-04 06:01:00,21.0,-1.0,-100.00,ENE,72,5.0,10.0,38,0.00,,,0.00,0.000000,,2013-03-04 12:01:00,
2013-03-04 06:32:00,21.0,2.0,-100.00,ENE,71,4.0,8.0,42,0.00,,,0.00,0.000000,,2013-03-04 12:32:00,
2013-03-04 06:42:00,21.0,2.0,-100.00,ENE,71,4.0,8.0,42,0.00,,,0.00,0.000000,,2013-03-04 12:42:00,
2013-03-04 06:53:00,21.0,2.0,-100.00,ENE,71,4.0,8.0,42,0.00,,,0.00,0.000000,,2013-03-04 12:53:00,
2013-03-04 07:02:00,21.0,2.0,-100.00,ENE,71,4.0,8.0,42,0.00,,,0.00,0.000000,,2013-03-04 13:02:00,
2013-03-04 07:32:00,22.0,3.0,-100.00,ENE,76,5.0,8.0,44,0.00,,,0.00,2.000000,,2013-03-04 13:32:00,
2013-03-04 07:42:00,22.0,3.0,-100.00,ENE,76,5.0,8.0,44,0.00,,,0.00,2.000000,,2013-03-04 13:42:00,
2013-03-04 07:52:00,22.0,3.0,-100.00,ENE,76,5.0,8.0,44,0.00,,,0.00,2.000000,,2013-03-04 13:52:00,
2013-03-04 08:01:00,22.0,3.0,-100.00,ENE,76,5.0,8.0,44,0.00,,,0.00,2.000000,,2013-03-04 14:01:00,
2013-03-04 08:32:00,24.0,5.0,-100.00,ENE,73,5.0,7.0,44,0.00,,,0.00,32.000000,,2013-03-04 14:32:00,
2013-03-04 08:42:00,24.0,5.0,-100.00,ENE,73,5.0,7.0,44,0.00,,,0.00,32.000000,,2013-03-04 14:42:00,
2013-03-04 08:52:00,24.0,5.0,-100.00,ENE,73,5.0,7.0,44,0.00,,,0.00,32.000000,,2013-03-04 14:52:00,
2013-03-04 09:01:00,24.0,5.0,-100.00,ENE,73,5.0,7.0,44,0.00,,,0.00,32.000000,,2013-03-04 15:01:00,
2013-03-04 09:32:00,27.0,4.0,-100.00,ESE,118,7.0,14.0,37,0.00,,,0.00,86.000000,,2013-03-04 15:32:00,
2013-03-04 09:42:00,27.0,4.0,-100.00,ESE,118,7.0,14.0,37,0.00,,,0.00,86.000000,,2013-03-04 15:42:00,
2013-03-04 09:52:00,27.0,4.0,-100.00,ESE,118,7.0,14.0,37,0.00,,,0.00,86.000000,,2013-03-04 15:52:00,
2013-03-04 10:02:00,27.0,4.0,-100.00,ESE,118,7.0,14.0,37,0.00,,,0.00,86.000000,,2013-03-04 16:02:00,
2013-03-04 10:32:00,28.0,5.0,-100.00,ESE,114,9.0,17.0,37,0.00,,,0.00,175.000000,,2013-03-04 16:32:00,
2013-03-04 10:42:00,28.0,5.0,-100.00,ESE,114,9.0,17.0,37,0.00,,,0.00,175.000000,,2013-03-04 16:42:00,
2013-03-04 10:52:00,28.0,5.0,-100.00,ESE,114,9.0,17.0,37,0.00,,,0.00,175.000000,,2013-03-04 16:52:00,
2013-03-04 11:02:00,28.0,5.0,-100.00,ESE,114,9.0,17.0,37,0.00,,,0.00,175.000000,,2013-03-04 17:02:00,
2013-03-04 11:32:00,26.0,13.0,-100.00,SE,125,8.0,15.0,58,0.00,,,0.00,157.000000,,2013-03-04 17:32:00,
2013-03-04 11:42:00,26.0,13.0,-100.00,SE,125,8.0,15.0,58,0.00,,,0.00,157.000000,,2013-03-04 17:42:00,
2013-03-04 11:52:00,26.0,13.0,-100.00,SE,125,8.0,15.0,58,0.00,,,0.00,157.000000,,2013-03-04 17:52:00,
2013-03-04 12:01:00,26.0,13.0,-100.00,SE,125,8.0,15.0,58,0.00,,,0.00,157.000000,,2013-03-04 18:01:00,
2013-03-04 12:32:00,30.0,8.0,-100.00,ESE,116,9.0,17.0,38,0.00,,,0.00,233.000000,,2013-03-04 18:32:00,
2013-03-04 12:42:00,30.0,8.0,-100.00,ESE,116,9.0,17.0,38,0.00,,,0.00,233.000000,,2013-03-04 18:42:00,
2013-03-04 12:52:00,30.0,8.0,-100.00,ESE,116,9.0,17.0,38,0.00,,,0.00,233.000000,,2013-03-04 18:52:00,
2013-03-04 13:02:00,30.0,8.0,-100.00,ESE,116,9.0,17.0,38,0.00,,,0.00,233.000000,,2013-03-04 19:02:00,
2013-03-04 13:32:00,29.0,9.0,-100.00,East,101,10.0,18.0,42,0.00,,,0.00,374.000000,,2013-03-04 19:32:00,
2013-03-04 13:42:00,29.0,9.0,-100.00,East,101,10.0,18.0,42,0.00,,,0.00,374.000000,,2013-03-04 19:42:00,
2013-03-04 13:52:00,29.0,9.0,-100.00,East,101,10.0,18.0,42,0.00,,,0.00,374.000000,,2013-03-04 19:52:00,
2013-03-04 14:02:00,29.0,9.0,-100.00,East,101,10.0,18.0,42,0.00,,,0.00,374.000000,,2013-03-04 20:02:00,
2013-03-04 14:32:00,29.0,10.0,-100.00,ESE,121,7.0,17.0,44,0.00,,,0.00,151.000000,,2013-03-04 20:32:00,
2013-03-04 14:42:00,29.0,10.0,-100.00,ESE,121,7.0,17.0,44,0.00,,,0.00,151.000000,,2013-03-04 20:42:00,
2013-03-04 14:52:00,29.0,10.0,-100.00,ESE,121,7.0,17.0,44,0.00,,,0.00,151.000000,,2013-03-04 20:52:00,
2013-03-04 15:02:00,29.0,10.0,-100.00,ESE,121,7.0,17.0,44,0.00,,,0.00,151.000000,,2013-03-04 21:02:00,
2013-03-04 15:32:00,28.0,17.0,-100.00,ESE,106,9.0,14.0,62,0.00,,,0.00,98.000000,,2013-03-04 21:32:00,
2013-03-04 15:43:00,28.0,17.0,-100.00,ESE,106,9.0,14.0,62,0.00,,,0.00,98.000000,,2013-03-04 21:43:00,
2013-03-04 15:53:00,28.0,17.0,-100.00,ESE,106,9.0,14.0,62,0.00,,,0.00,98.000000,,2013-03-04 21:53:00,
2013-03-04 16:02:00,28.0,17.0,-100.00,ESE,106,9.0,14.0,62,0.00,,,0.00,98.000000,,2013-03-04 22:02:00,
2013-03-04 16:32:00,27.0,18.0,-100.00,ESE,102,6.0,14.0,69,0.00,,,0.00,75.000000,,2013-03-04 22:32:00,
2013-03-04 16:43:00,27.0,18.0,-100.00,ESE,102,6.0,14.0,69,0.00,,,0.00,75.000000,,2013-03-04 22:43:00,
2013-03-04 16:52:00,27.0,18.0,-100.00,ESE,102,6.0,14.0,69,0.00,,,0.00,75.000000,,2013-03-04 22:52:00,
2013-03-04 17:02:00,27.0,18.0,-100.00,ESE,102,6.0,14.0,69,0.00,,,0.00,75.000000,,2013-03-04 23:02:00,
2013-03-04 17:32:00,26.0,20.0,-100.00,ESE,105,5.0,11.0,79,0.00,,,0.00,27.000000,,2013-03-04 23:32:00,
2013-03-04 17:42:00,26.0,20.0,-100.00,ESE,105,5.0,11.0,79,0.00,,,0.00,27.000000,,2013-03-04 23:42:00,
2013-03-04 17:52:00,26.0,20.0,-100.00,ESE,105,5.0,11.0,79,0.00,,,0.00,27.000000,,2013-03-04 23:52:00,
2013-03-04 18:02:00,26.0,20.0,-100.00,ESE,105,5.0,11.0,79,0.00,,,0.00,27.000000,,2013-03-05 00:02:00,
2013-03-04 18:32:00,26.0,20.0,-100.00,ESE,105,4.0,8.0,78,0.01,,,0.01,4.000000,,2013-03-05 00:32:00,
2013-03-04 18:42:00,26.0,20.0,-100.00,ESE,105,4.0,8.0,78,0.01,,,0.01,4.000000,,2013-03-05 00:42:00,
2013-03-04 18:52:00,26.0,20.0,-100.00,ESE,105,4.0,8.0,78,0.01,,,0.01,4.000000,,2013-03-05 00:52:00,
2013-03-04 19:01:00,26.0,20.0,-100.00,ESE,105,4.0,8.0,78,0.01,,,0.01,4.000000,,2013-03-05 01:01:00,
2013-03-04 20:32:00,26.0,19.0,-100.00,ESE,123,3.0,9.0,73,-99.99,,,0.01,0.000000,,2013-03-05 02:32:00,
2013-03-04 20:42:00,26.0,19.0,-100.00,ESE,123,3.0,9.0,73,-99.99,,,0.01,0.000000,,2013-03-05 02:42:00,
2013-03-04 20:52:00,26.0,19.0,-100.00,ESE,123,3.0,9.0,73,-99.99,,,0.01,0.000000,,2013-03-05 02:52:00,
2013-03-04 21:02:00,26.0,19.0,-100.00,ESE,123,3.0,9.0,73,-99.99,,,0.01,0.000000,,2013-03-05 03:02:00,
2013-03-04 21:32:00,25.0,20.0,-100.00,SE,129,3.0,6.0,82,0.01,,,0.02,0.000000,,2013-03-05 03:32:00,
2013-03-04 21:42:00,25.0,20.0,-100.00,SE,129,3.0,6.0,82,0.01,,,0.02,0.000000,,2013-03-05 03:42:00,
2013-03-04 21:52:00,25.0,20.0,-100.00,SE,129,3.0,6.0,82,0.01,,,0.02,0.000000,,2013-03-05 03:52:00,
2013-03-04 22:01:00,25.0,20.0,-100.00,SE,129,3.0,6.0,82,0.01,,,0.02,0.000000,,2013-03-05 04:01:00,
2013-03-04 22:32:00,24.0,21.0,-100.00,ENE,75,3.0,4.0,89,0.02,,,0.04,0.000000,,2013-03-05 04:32:00,
2013-03-04 22:42:00,24.0,21.0,-100.00,ENE,75,3.0,4.0,89,0.02,,,0.04,0.000000,,2013-03-05 04:42:00,
2013-03-04 22:52:00,24.0,21.0,-100.00,ENE,75,3.0,4.0,89,0.02,,,0.04,0.000000,,2013-03-05 04:52:00,
2013-03-04 23:02:00,24.0,21.0,-100.00,ENE,75,3.0,4.0,89,0.02,,,0.04,0.000000,,2013-03-05 05:02:00,
2013-03-04 23:32:00,24.0,22.0,-100.00,East,84,4.0,6.0,92,0.02,,,0.06,0.000000,,2013-03-05 05:32:00,
2013-03-04 23:42:00,24.0,22.0,-100.00,East,84,4.0,6.0,92,0.02,,,0.06,0.000000,,2013-03-05 05:42:00,
2013-03-04 23:52:00,24.0,22.0,-100.00,East,84,4.0,6.0,92,0.02,,,0.06,0.000000,,2013-03-05 05:52:00,